QPF
0.00 0.00 0.00 0.00 0.00 0.00 0.00 0.00 0.00 0.00 0.00 0.00 0.00 0.00 0.00 0.00 0.00 0.00 0.00 0.00 0.00 0.00 0.03 0.09 0.14 0.19 0.21 0.21 0.08 0.01 0.03 0.00 0.00 0.00 0.00 0.01 0.01 0.03 0.03 0.02 0.04 0.02 0.01 0.02 0.04 0.02 0.06 0.06 0.02
0.00 0.00 0.00 0.00 0.00 0.00 0.00 0.00 0.00 0.00 0.00 0.00 0.00 0.00 0.00 0.00 0.00 0.00 0.00 0.00 0.00 0.00 0.02 0.08 0.14 0.17 0.10 0.11 0.04 0.01 0.01 0.00 0.00 0.00 0.00 0.02 0.02 0.01 0.00 0.01 0.00 0.01 0.01 0.07 0.13 0.13 0.09 0.05 0.05
0.00 0.00 0.00 0.00 0.00 0.00 0.00 0.00 0.00 0.00 0.00 0.00 0.00 0.00 0.00 0.00 0.00 0.00 0.00 0.00 0.00 0.00 0.00 0.03 0.07 0.09 0.03 0.04 0.01 0.00 0.00 0.00 0.00 0.00 0.01 0.02 0.00 0.01 0.01 0.00 0.00 0.00 0.01 0.04 0.09 0.11 0.07 0.05 0.01
0.00 0.00 0.00 0.00 0.00 0.00 0.00 0.00 0.00 0.00 0.00 0.00 0.00 0.00 0.00 0.00 0.00 0.00 0.00 0.00 0.00 0.00 0.00 0.00 0.02 0.03 0.01 0.04 0.01 0.00 0.00 0.01 0.01 0.02 0.02 0.01 0.00 0.01 0.03 0.00 0.00 0.00 0.00 0.01 0.04 0.06 0.04 0.01 0.00
0.00 0.00 0.00 0.00 0.00 0.00 0.00 0.00 0.00 0.00 0.00 0.00 0.00 0.00 0.00 0.00 0.00 0.00 0.00 0.00 0.00 0.00 0.00 0.00 0.01 0.00 0.01 0.05 0.02 0.02 0.04 0.01 0.00 0.01 0.01 0.01 0.01 0.00 0.00 0.01 0.01 0.00 0.00 0.00 0.00 0.00 0.00 0.00 0.01
0.00 0.00 0.00 0.00 0.00 0.00 0.00 0.00 0.00 0.00 0.00 0.00 0.00 0.00 0.00 0.00 0.00 0.00 0.00 0.00 0.00 0.00 0.00 0.00 0.00 0.01 0.01 0.02 0.04 0.01 0.00 0.02 0.06 0.04 0.03 0.02 0.01 0.01 0.01 0.01 0.02 0.00 0.00 0.00 0.00 0.00 0.00 0.01 0.01
0.00 0.00 0.00 0.00 0.00 0.00 0.00 0.00 0.00 0.00 0.00 0.00 0.00 0.00 0.00 0.00 0.00 0.00 0.00 0.00 0.00 0.00 0.00 0.00 0.00 0.01 0.05 0.08 0.02 0.02 0.02 0.05 0.07 0.05 0.03 0.03 0.01 0.01 0.01 0.00 0.00 0.00 0.00 0.00 0.00 0.00 0.00 0.00 0.00
0.00 0.00 0.00 0.00 0.00 0.00 0.00 0.00 0.00 0.00 0.00 0.00 0.00 0.00 0.00 0.00 0.00 0.00 0.00 0.00 0.00 0.00 0.00 0.01 0.01 0.04 0.09 0.11 0.06 0.03 0.03 0.01 0.01 0.01 0.01 0.03 0.02 0.01 0.01 0.00 0.00 0.00 0.00 0.00 0.00 0.00 0.00 0.00 0.00
0.00 0.00 0.00 0.00 0.00 0.00 0.00 0.00 0.00 0.00 0.00 0.00 0.00 0.00 0.00 0.00 0.00 0.00 0.00 0.00 0.00 0.00 0.00 0.02 0.00 0.04 0.17 0.13 0.04 0.04 0.02 0.02 0.02 0.01 0.02 0.00 0.00 0.00 0.00 0.00 0.01 0.01 0.00 0.00 0.00 0.00 0.00 0.00 0.00
0.00 0.00 0.03 0.03 0.00 0.00 0.00 0.00 0.00 0.00 0.00 0.00 0.00 0.00 0.00 0.00 0.00 0.00 0.00 0.00 0.00 0.00 0.00 0.00 0.00 0.00 0.06 0.10 0.02 0.02 0.01 0.01 0.00 0.00 0.00 0.00 0.00 0.03 0.00 0.01 0.01 0.00 0.00 0.00 0.00 0.00 0.00 0.00 0.00
0.01 0.02 0.00 0.02 0.01 0.00 0.00 0.00 0.00 0.00 0.00 0.00 0.00 0.00 0.00 0.00 0.00 0.00 0.00 0.00 0.00 0.00 0.00 0.00 0.00 0.02 0.03 0.01 0.00 0.00 0.00 0.00 0.00 0.00 0.00 0.00 0.00 0.00 0.00 0.00 0.00 0.00 0.00 0.00 0.00 0.00 0.00 0.00 0.00
0.00 0.00 0.00 0.02 0.01 0.00 0.00 0.00 0.00 0.00 0.00 0.00 0.00 0.00 0.00 0.00 0.00 0.00 0.00 0.00 0.00 0.00 0.00 0.00 0.00 0.00 0.00 0.00 0.00 0.00 0.00 0.00 0.00 0.00 0.00 0.00 0.00 0.00 0.00 0.00 0.00 0.00 0.00 0.00 0.00 0.00 0.00 0.00 0.00
0.00 0.01 0.00 0.01 0.00 0.00 0.00 0.00 0.00 0.00 0.00 0.00 0.00 0.00 0.00 0.00 0.00 0.00 0.00 0.00 0.00 0.00 0.00 0.00 0.00 0.00 0.00 0.00 0.00 0.00 0.00 0.00 0.00 0.00 0.00 0.00 0.00 0.00 0.00 0.00 0.00 0.00 0.00 0.00 0.00 0.00 0.00 0.00 0.00
0.03 0.04 0.01 0.00 0.00 0.00 0.00 0.00 0.00 0.00 0.00 0.00 0.00 0.00 0.00 0.00 0.00 0.00 0.00 0.00 0.00 0.00 0.00 0.00 0.00 0.00 0.00 0.00 0.00 0.00 0.00 0.00 0.00 0.00 0.00 0.00 0.00 0.00 0.00 0.00 0.00 0.00 0.00 0.00 0.00 0.00 0.00 0.00 0.00
0.02 0.01 0.01 0.01 0.01 0.01 0.03 0.01 0.00 0.00 0.00 0.00 0.00 0.00 0.00 0.00 0.00 0.00 0.00 0.00 0.00 0.00 0.00 0.00 0.00 0.00 0.00 0.00 0.00 0.00 0.05 0.02 0.00 0.00 0.00 0.00 0.00 0.00 0.00 0.00 0.00 0.00 0.00 0.00 0.00 0.00 0.00 0.00 0.00
0.00 0.00 0.01 0.02 0.01 0.01 0.04 0.03 0.05 0.00 0.00 0.00 0.00 0.00 0.00 0.00 0.00 0.00 0.00 0.00 0.00 0.00 0.00 0.00 0.00 0.00 0.00 0.00 0.00 0.00 0.00 0.00 0.00 0.00 0.00 0.01 0.00 0.00 0.00 0.00 0.00 0.00 0.00 0.00 0.00 0.00 0.00 0.00 0.00
0.00 0.00 0.00 0.00 0.00 0.02 0.05 0.07 0.07 0.03 0.01 0.00 0.00 0.00 0.00 0.00 0.00 0.00 0.00 0.00 0.00 0.00 0.00 0.00 0.00 0.00 0.00 0.00 0.00 0.00 0.00 0.00 0.00 0.00 0.01 0.00 0.00 0.00 0.00 0.00 0.00 0.00 0.00 0.00 0.00 0.00 0.00 0.00 0.00
0.00 0.00 0.00 0.00 0.00 0.02 0.01 0.03 0.04 0.06 0.02 0.00 0.00 0.00 0.00 0.00 0.00 0.00 0.00 0.00 0.00 0.00 0.00 0.00 0.00 0.00 0.00 0.00 0.00 0.00 0.00 0.00 0.00 0.00 0.00 0.00 0.00 0.00 0.00 0.00 0.00 0.00 0.00 0.00 0.00 0.00 0.00 0.00 0.00
0.00 0.00 0.00 0.00 0.00 0.01 0.01 0.03 0.04 0.05 0.01 0.00 0.00 0.00 0.00 0.00 0.00 0.00 0.00 0.00 0.00 0.00 0.00 0.00 0.00 0.00 0.00 0.00 0.00 0.00 0.00 0.00 0.00 0.00 0.00 0.01 0.02 0.00 0.00 0.00 0.00 0.00 0.00 0.00 0.00 0.00 0.00 0.00 0.00
0.00 0.02 0.02 0.00 0.00 0.00 0.00 0.01 0.01 0.01 0.01 0.00 0.00 0.00 0.00 0.00 0.00 0.00 0.00 0.00 0.00 0.00 0.00 0.00 0.00 0.00 0.00 0.00 0.00 0.00 0.00 0.00 0.00 0.00 0.01 0.00 0.00 0.00 0.00 0.00 0.00 0.00 0.00 0.00 0.00 0.00 0.00 0.00 0.00
0.03 0.02 0.01 0.00 0.01 0.01 0.01 0.00 0.01 0.00 0.00 0.00 0.00 0.00 0.00 0.00 0.00 0.00 0.00 0.00 0.00 0.00 0.00 0.00 0.00 0.00 0.00 0.00 0.00 0.00 0.00 0.00 0.01 0.03 0.04 0.00 0.00 0.00 0.00 0.00 0.00 0.00 0.00 0.00 0.00 0.00 0.00 0.00 0.00
0.00 0.00 0.00 0.02 0.01 0.01 0.01 0.00 0.00 0.00 0.00 0.00 0.00 0.00 0.00 0.00 0.00 0.00 0.00 0.00 0.00 0.00 0.00 0.00 0.00 0.00 0.00 0.00 0.00 0.00 0.00 0.02 0.03 0.04 0.03 0.02 0.00 0.00 0.00 0.00 0.00 0.00 0.00 0.00 0.00 0.00 0.00 0.00 0.00
0.00 0.00 0.00 0.02 0.00 0.00 0.00 0.00 0.00 0.00 0.00 0.00 0.00 0.00 0.00 0.00 0.00 0.00 0.00 0.00 0.00 0.00 0.00 0.00 0.00 0.00 0.00 0.00 0.01 0.02 0.00 0.03 0.02 0.00 0.02 0.04 0.02 0.00 0.00 0.01 0.00 0.00 0.00 0.00 0.00 0.00 0.00 0.00 0.00
0.00 0.00 0.00 0.00 0.00 0.00 0.00 0.00 0.00 0.00 0.00 0.00 0.00 0.00 0.00 0.00 0.00 0.00 0.00 0.00 0.00 0.00 0.00 0.00 0.00 0.00 0.00 0.00 0.00 0.00 0.00 0.02 0.00 0.00 0.00 0.01 0.01 0.00 0.00 0.00 0.00 0.02 0.00 0.00 0.00 0.00 0.00 0.00 0.00
0.00 0.00 0.00 0.00 0.00 0.00 0.00 0.00 0.00 0.00 0.00 0.00 0.00 0.00 0.00 0.00 0.00 0.00 0.00 0.00 0.00 0.00 0.00 0.00 0.00 0.00 0.00 0.00 0.00 0.00 0.00 0.00 0.00 0.00 0.00 0.00 0.00 0.00 0.02 0.03 0.03 0.03 0.00 0.00 0.00 0.00 0.00 0.00 0.00
0.00 0.00 0.01 0.01 0.00 0.00 0.00 0.00 0.00 0.00 0.00 0.00 0.00 0.00 0.00 0.00 0.00 0.00 0.00 0.00 0.00 0.00 0.00 0.00 0.00 0.00 0.00 0.00 0.00 0.00 0.00 0.00 0.00 0.00 0.01 0.00 0.00 0.00 0.00 0.01 0.04 0.03 0.02 0.00 0.00 0.00 0.00 0.00 0.00
0.00 0.01 0.01 0.00 0.00 0.00 0.00 0.00 0.00 0.00 0.00 0.00 0.00 0.00 0.00 0.00 0.00 0.00 0.00 0.00 0.00 0.00 0.00 0.00 0.00 0.00 0.00 0.00 0.00 0.00 0.00 0.00 0.00 0.00 0.01 0.00 0.00 0.00 0.00 0.00 0.00 0.00 0.00 0.02 0.00 0.00 0.00 0.00 0.00
0.03 0.05 0.05 0.01 0.00 0.00 0.00 0.00 0.00 0.00 0.00 0.00 0.00 0.00 0.00 0.00 0.00 0.00 0.00 0.00 0.00 0.00 0.00 0.00 0.00 0.00 0.00 0.00 0.00 0.00 0.00 0.00 0.00 0.00 0.00 0.00 0.00 0.00 0.00 0.00 0.00 0.00 0.00 0.00 0.01 0.02 0.00 0.00 0.00
0.00 0.01 0.03 0.00 0.00 0.00 0.00 0.00 0.00 0.00 0.00 0.00 0.00 0.00 0.00 0.00 0.00 0.00 0.00 0.00 0.00 0.00 0.00 0.00 0.00 0.00 0.00 0.00 0.00 0.00 0.00 0.00 0.00 0.00 0.00 0.00 0.00 0.00 0.00 0.00 0.00 0.00 0.00 0.00 0.03 0.07 0.05 0.03 0.02
0.00 0.00 0.02 0.00 0.00 0.00 0.00 0.00 0.00 0.00 0.00 0.00 0.00 0.00 0.00 0.00 0.00 0.01 0.00 0.00 0.00 0.00 0.00 0.00 0.00 0.00 0.00 0.00 0.00 0.00 0.00 0.00 0.00 0.00 0.00 0.00 0.00 0.00 0.00 0.00 0.00 0.00 0.00 0.00 0.04 0.06 0.07 0.06 0.02
MSLP
1011.34 1011.38 1011.36 1011.12 1011.12 1010.22 1010.28 1010.68 1010.88 1011.46 1011.88 1012.10 1012.57 1012.67 1013.22 1013.72 1013.95 1014.94 1015.60 1016.28 1016.38 1016.82 1017.26 1017.18 1017.22 1017.36 1017.35 1017.20 1017.17 1017.43 1017.50 1017.55 1017.56 1017.64 1017.70 1017.87 1018.02 1018.14 1018.24 1018.39 1018.39 1018.33 1018.42 1018.57 1018.54 1018.47 1018.54 1018.74 1018.66
1011.26 1011.47 1011.33 1010.79 1010.43 1009.83 1010.10 1010.31 1010.56 1011.17 1011.36 1011.86 1012.40 1012.87 1013.16 1013.94 1014.57 1015.21 1015.72 1016.32 1016.39 1016.80 1017.09 1017.39 1017.54 1017.51 1017.55 1017.46 1017.63 1017.72 1017.70 1017.82 1017.79 1017.84 1017.99 1018.26 1018.36 1018.38 1018.52 1018.63 1018.64 1018.66 1018.75 1018.86 1018.83 1018.72 1018.82 1018.96 1019.10
1011.29 1011.35 1011.10 1010.51 1010.50 1009.90 1009.84 1010.20 1010.62 1011.07 1011.50 1011.77 1012.36 1013.02 1013.61 1014.43 1015.13 1015.18 1015.72 1016.22 1016.48 1016.91 1017.09 1017.39 1017.61 1017.56 1017.57 1017.72 1017.82 1017.91 1017.96 1018.02 1018.10 1018.14 1018.29 1018.48 1018.57 1018.65 1018.81 1018.90 1018.98 1019.02 1019.06 1019.06 1019.10 1019.04 1019.15 1019.04 1019.26
1011.06 1011.21 1011.18 1010.66 1010.28 1010.22 1010.04 1010.29 1010.64 1011.14 1011.71 1012.08 1012.40 1013.22 1014.42 1014.88 1015.03 1015.35 1015.97 1016.23 1016.57 1016.94 1017.14 1017.48 1017.65 1017.71 1017.78 1017.96 1018.02 1018.14 1018.20 1018.23 1018.35 1018.42 1018.52 1018.67 1018.83 1018.95 1018.92 1019.09 1019.20 1019.28 1019.36 1019.42 1019.42 1019.44 1019.42 1019.34 1019.49
1010.96 1010.76 1010.46 1010.66 1010.58 1010.44 1010.34 1010.60 1010.84 1011.10 1011.82 1012.28 1012.56 1013.80 1014.59 1015.42 1015.46 1015.79 1016.19 1016.46 1016.69 1017.02 1017.14 1017.31 1017.79 1017.86 1017.96 1018.09 1018.24 1018.32 1018.44 1018.52 1018.64 1018.82 1018.88 1018.97 1019.10 1019.08 1019.18 1019.31 1019.42 1019.56 1019.63 1019.69 1019.66 1019.60 1019.70 1019.67 1019.81
1010.67 1010.74 1010.57 1010.68 1010.72 1010.84 1010.78 1010.99 1011.24 1011.52 1012.22 1012.70 1013.08 1013.72 1015.14 1015.82 1015.78 1016.09 1016.38 1016.65 1016.86 1017.11 1017.32 1017.48 1017.88 1017.98 1018.06 1018.27 1018.42 1018.56 1018.66 1018.84 1018.94 1019.18 1019.19 1019.25 1019.29 1019.34 1019.43 1019.59 1019.67 1019.78 1019.87 1019.87 1019.80 1019.90 1019.98 1019.92 1020.03
1010.42 1010.61 1010.94 1011.00 1010.96 1010.90 1010.98 1011.20 1011.23 1011.77 1012.36 1012.82 1013.18 1013.74 1015.48 1015.86 1016.11 1016.46 1016.61 1016.84 1016.95 1017.19 1017.48 1017.66 1017.73 1018.02 1018.26 1018.44 1018.56 1018.76 1018.98 1019.16 1019.27 1019.34 1019.42 1019.52 1019.56 1019.59 1019.65 1019.74 1019.86 1020.01 1020.06 1020.08 1020.10 1020.11 1020.10 1020.15 1020.14
1010.68 1010.74 1011.03 1011.11 1010.94 1011.10 1011.06 1011.36 1011.75 1011.90 1012.64 1013.12 1013.35 1013.81 1014.91 1015.61 1016.32 1016.59 1016.81 1017.02 1017.30 1017.30 1017.51 1017.76 1017.95 1018.16 1018.18 1018.61 1018.78 1019.00 1019.09 1019.22 1019.32 1019.48 1019.56 1019.63 1019.83 1019.89 1020.01 1020.07 1020.12 1020.12 1020.21 1020.26 1020.24 1020.20 1020.22 1020.31 1020.37
1010.90 1011.03 1011.19 1011.44 1011.27 1011.22 1011.40 1011.60 1012.14 1012.27 1012.67 1013.08 1013.58 1013.85 1014.52 1015.66 1016.31 1016.57 1016.93 1017.44 1017.64 1017.81 1017.98 1018.25 1018.25 1018.53 1018.63 1018.71 1018.90 1019.09 1019.32 1019.44 1019.58 1019.75 1019.99 1020.00 1020.02 1020.06 1019.90 1020.36 1020.38 1020.35 1020.34 1020.26 1020.29 1020.33 1020.38 1020.45 1020.52
1010.91 1011.40 1011.90 1012.36 1011.88 1011.41 1011.40 1011.76 1012.21 1012.50 1012.72 1013.53 1014.04 1014.64 1015.30 1015.89 1016.31 1016.52 1016.84 1017.27 1017.70 1017.95 1018.12 1018.35 1018.38 1018.47 1018.76 1018.98 1019.17 1019.35 1019.40 1019.67 1019.82 1020.02 1020.17 1020.25 1020.37 1020.50 1020.38 1020.59 1020.65 1020.53 1020.52 1020.50 1020.51 1020.54 1020.51 1020.45 1020.28
1011.18 1011.88 1012.50 1012.81 1012.38 1011.85 1011.75 1011.96 1012.24 1012.72 1012.80 1013.19 1013.61 1014.60 1015.35 1015.88 1016.39 1016.68 1016.95 1017.31 1017.68 1017.89 1018.22 1018.54 1018.55 1018.81 1018.96 1019.17 1019.29 1019.39 1019.55 1019.74 1020.06 1020.26 1020.32 1020.46 1020.52 1020.58 1020.40 1020.32 1020.40 1020.41 1020.58 1020.22 1020.24 1020.18 1020.14 1020.26 1020.29
1011.40 1012.37 1012.74 1013.10 1013.01 1012.28 1012.36 1012.36 1012.47 1012.67 1012.48 1013.09 1013.99 1014.51 1015.22 1015.82 1016.24 1016.57 1016.92 1017.27 1017.70 1018.06 1018.36 1018.57 1018.64 1018.94 1019.18 1019.29 1019.46 1019.66 1019.74 1019.90 1020.06 1020.34 1020.48 1020.48 1020.36 1020.52 1020.55 1020.34 1020.41 1020.43 1020.43 1020.33 1020.22 1020.06 1020.25 1020.15 1020.20
1011.65 1012.72 1013.23 1013.44 1013.46 1012.90 1012.90 1012.60 1012.36 1012.63 1012.92 1013.58 1014.33 1015.02 1015.32 1015.78 1016.16 1016.47 1016.89 1017.28 1017.73 1018.02 1018.40 1018.65 1018.91 1019.13 1019.32 1019.43 1019.61 1019.70 1019.91 1019.91 1020.10 1020.39 1020.51 1020.48 1020.46 1020.53 1020.57 1020.63 1020.47 1020.47 1020.36 1020.14 1020.10 1020.08 1019.92 1019.98 1020.04
1012.37 1013.05 1013.64 1014.00 1013.93 1013.52 1013.11 1012.70 1012.35 1012.98 1013.28 1014.05 1014.43 1014.89 1015.29 1015.70 1015.96 1016.36 1016.78 1017.18 1017.64 1017.94 1018.32 1018.69 1019.02 1019.16 1019.29 1019.39 1019.65 1019.90 1020.07 1020.24 1020.39 1020.50 1020.56 1020.70 1020.60 1020.74 1020.70 1020.63 1020.38 1020.30 1020.19 1020.12 1020.02 1019.99 1019.84 1019.86 1019.89
1012.56 1013.01 1013.81 1014.44 1014.42 1014.02 1013.76 1012.93 1012.36 1012.88 1013.22 1013.88 1014.39 1014.86 1015.30 1015.66 1016.00 1016.14 1016.44 1016.91 1017.38 1017.82 1018.28 1018.70 1018.94 1019.04 1019.30 1019.51 1019.72 1019.92 1020.13 1020.28 1020.33 1020.47 1020.75 1020.78 1020.70 1020.72 1020.76 1020.56 1020.32 1020.17 1020.12 1020.03 1019.88 1019.88 1019.81 1019.67 1019.79
1012.34 1013.23 1013.95 1015.00 1014.65 1014.67 1014.18 1012.70 1012.67 1012.95 1013.29 1013.61 1014.30 1014.75 1015.11 1015.42 1015.85 1016.06 1016.42 1016.79 1017.28 1017.72 1018.29 1018.62 1018.62 1018.90 1019.16 1019.48 1019.79 1019.82 1020.16 1020.23 1020.36 1020.43 1020.68 1020.75 1020.80 1020.78 1020.73 1020.45 1020.30 1020.21 1020.12 1019.79 1019.66 1019.56 1019.74 1019.96 1019.94
1012.30 1013.07 1014.04 1015.21 1015.53 1014.96 1014.44 1013.02 1013.12 1013.09 1013.12 1013.40 1013.98 1014.44 1014.76 1015.30 1015.74 1015.97 1016.27 1016.71 1017.20 1017.68 1018.17 1018.58 1018.84 1019.03 1019.32 1019.67 1019.80 1020.04 1020.18 1020.22 1020.38 1020.58 1020.68 1020.72 1020.69 1020.73 1020.68 1020.50 1020.43 1020.40 1019.89 1019.68 1019.56 1019.71 1019.78 1019.94 1020.02
1011.60 1012.70 1013.91 1014.75 1015.42 1014.97 1014.41 1013.76 1013.32 1013.33 1013.53 1013.26 1013.62 1014.24 1014.49 1014.80 1014.94 1015.53 1016.06 1016.48 1017.12 1017.67 1018.18 1018.54 1018.87 1019.16 1019.44 1019.65 1019.99 1019.96 1020.09 1020.27 1020.42 1020.57 1020.56 1020.66 1020.69 1020.78 1020.66 1020.50 1020.63 1020.36 1019.80 1019.79 1019.81 1019.97 1020.11 1020.15 1020.17
1011.14 1012.24 1013.38 1014.64 1015.06 1014.63 1014.76 1014.17 1013.81 1013.87 1013.78 1013.74 1013.66 1014.02 1014.14 1014.26 1014.66 1015.32 1015.93 1016.39 1016.96 1017.54 1018.07 1018.54 1018.92 1019.18 1019.50 1019.73 1019.95 1019.98 1019.89 1020.25 1020.40 1020.45 1020.57 1020.70 1020.80 1020.73 1020.81 1020.61 1020.53 1020.37 1020.15 1020.26 1020.21 1020.17 1020.21 1020.22 1020.50
1011.22 1011.93 1013.12 1014.28 1014.80 1015.06 1014.82 1014.65 1014.48 1014.18 1013.80 1013.57 1013.50 1013.58 1013.70 1013.95 1014.49 1015.11 1015.64 1016.12 1016.55 1017.14 1017.74 1018.49 1018.86 1019.18 1019.40 1019.52 1019.65 1019.71 1019.82 1020.06 1020.22 1020.39 1020.53 1020.59 1020.81 1020.76 1020.84 1020.87 1020.60 1020.50 1020.31 1020.43 1020.36 1020.33 1020.21 1020.39 1020.60
1011.13 1011.67 1012.73 1013.56 1014.64 1014.98 1015.04 1014.64 1014.49 1014.60 1014.36 1013.86 1013.40 1013.08 1013.12 1013.46 1013.92 1014.56 1015.15 1015.62 1016.26 1016.78 1017.34 1018.10 1018.72 1019.04 1019.29 1019.48 1019.74 1019.89 1019.94 1020.12 1020.35 1020.40 1020.60 1020.44 1020.57 1020.76 1020.80 1020.94 1020.86 1020.71 1020.58 1020.48 1020.58 1020.49 1020.43 1020.30 1020.64
1011.06 1011.61 1012.31 1013.30 1013.85 1014.18 1014.59 1014.20 1013.94 1014.03 1014.02 1013.53 1012.99 1012.90 1012.77 1013.03 1013.54 1013.94 1014.62 1015.19 1015.67 1016.26 1017.09 1017.90 1018.52 1018.97 1019.38 1019.60 1019.56 1019.60 1019.61 1019.74 1019.95 1020.31 1020.40 1020.38 1020.58 1020.68 1020.81 1020.91 1020.85 1020.81 1020.69 1020.69 1020.60 1020.49 1020.64 1020.44 1020.32
1011.28 1011.62 1012.19 1012.92 1013.44 1013.72 1014.18 1014.05 1012.81 1013.08 1012.98 1012.68 1012.45 1012.39 1012.32 1012.46 1012.93 1013.41 1014.04 1014.45 1015.06 1015.99 1016.62 1017.44 1018.29 1018.86 1019.20 1019.45 1019.46 1019.56 1019.59 1019.80 1020.10 1020.35 1020.34 1020.62 1020.60 1020.67 1020.71 1020.88 1020.78 1020.80 1020.66 1020.67 1020.71 1020.71 1020.79 1020.69 1020.55
1011.48 1011.99 1012.44 1012.76 1013.10 1012.90 1012.51 1012.94 1011.44 1011.54 1010.28 1010.82 1011.63 1011.78 1011.85 1012.03 1012.46 1012.91 1013.58 1014.40 1014.96 1015.78 1016.45 1017.14 1017.88 1018.42 1018.96 1019.16 1019.37 1019.51 1019.50 1019.74 1019.92 1020.17 1020.20 1020.33 1020.46 1020.39 1020.58 1020.56 1020.63 1020.69 1020.57 1020.64 1020.54 1020.68 1020.77 1020.76 1020.78
1011.21 1011.58 1011.67 1012.00 1012.09 1011.67 1012.02 1012.17 1009.99 1009.78 1009.55 1009.27 1009.65 1010.88 1011.35 1011.76 1012.08 1012.52 1013.51 1014.21 1014.61 1015.26 1015.90 1016.65 1017.44 1017.92 1018.45 1018.84 1019.11 1019.28 1019.34 1019.50 1019.66 1019.81 1019.92 1020.16 1020.23 1020.28 1020.32 1020.42 1020.48 1020.42 1020.46 1020.46 1020.54 1020.72 1020.72 1020.71 1020.70
1010.62 1010.80 1010.65 1010.68 1010.85 1011.03 1011.35 1010.30 1009.26 1009.12 1008.76 1008.61 1008.93 1009.89 1010.70 1011.29 1011.66 1012.06 1012.85 1013.52 1014.06 1014.68 1015.44 1016.08 1016.78 1017.41 1017.97 1018.40 1018.80 1019.06 1019.22 1019.29 1019.40 1019.59 1019.72 1019.84 1019.95 1020.00 1020.10 1020.20 1020.28 1020.20 1020.37 1020.38 1020.44 1020.31 1020.46 1020.58 1020.66
1010.78 1010.87 1011.00 1010.64 1010.71 1010.27 1010.04 1009.56 1009.46 1009.22 1009.04 1008.85 1008.88 1009.85 1010.32 1010.56 1011.12 1011.48 1012.47 1013.17 1013.58 1014.26 1014.89 1015.52 1016.19 1016.83 1017.43 1017.84 1018.27 1018.68 1018.96 1019.15 1019.09 1019.36 1019.58 1019.64 1019.76 1019.79 1019.97 1019.99 1020.09 1020.09 1020.16 1020.20 1020.26 1020.30 1020.30 1020.53 1020.64
1010.34 1010.57 1010.93 1010.53 1009.90 1009.67 1009.42 1009.64 1009.72 1010.04 1010.02 1009.78 1009.64 1009.64 1009.94 1010.56 1011.50 1011.90 1012.45 1012.89 1013.42 1013.92 1014.37 1015.12 1015.74 1016.19 1016.78 1017.44 1017.86 1018.11 1018.45 1018.82 1019.00 1019.23 1019.38 1019.51 1019.51 1019.59 1019.68 1019.84 1019.80 1019.87 1019.89 1019.90 1019.98 1020.20 1020.17 1020.32 1020.34
1010.52 1010.22 1010.57 1010.46 1009.94 1009.20 1009.26 1010.07 1011.10 1011.28 1011.12 1010.44 1009.93 1009.76 1009.74 1010.35 1010.64 1011.50 1012.03 1012.37 1012.79 1013.59 1014.09 1014.62 1015.13 1015.79 1016.29 1016.78 1017.28 1017.70 1018.04 1018.36 1018.68 1018.88 1019.14 1019.34 1019.33 1019.32 1019.40 1019.64 1019.80 1019.82 1019.82 1019.72 1019.84 1019.99 1020.10 1020.19 1020.26
1009.64 1009.32 1009.62 1009.64 1009.65 1009.69 1009.86 1010.38 1011.38 1011.80 1011.74 1011.21 1010.64 1010.38 1010.17 1010.24 1010.74 1011.22 1011.74 1012.30 1012.66 1013.20 1013.68 1014.16 1014.63 1015.20 1015.60 1016.11 1016.77 1017.23 1017.67 1018.02 1018.22 1018.47 1018.72 1018.95 1019.10 1019.06 1019.29 1019.49 1019.58 1019.66 1019.67 1019.73 1019.66 1019.70 1019.67 1019.87 1019.90
Thickness
5783 5783 5783 5776 5758 5759 5739 5740 5754 5740 5739 5753 5751 5745 5737 5736 5730 5716 5740 5737 5736 5733 5729 5731 5731 5730 5728 5728 5732 5733 5733 5735 5738 5740 5740 5740 5741 5742 5741 5741 5742 5743 5744 5743 5744 5747 5747 5745 5747
5785 5783 5779 5769 5757 5744 5740 5755 5746 5749 5757 5760 5754 5748 5741 5730 5738 5734 5734 5737 5737 5735 5733 5729 5729 5730 5730 5730 5730 5731 5733 5734 5736 5738 5738 5737 5738 5739 5738 5739 5740 5740 5742 5741 5744 5747 5746 5745 5745
5788 5785 5769 5765 5750 5745 5745 5755 5754 5757 5762 5758 5749 5753 5744 5732 5737 5740 5743 5740 5738 5735 5734 5733 5732 5733 5732 5731 5731 5731 5732 5734 5734 5736 5736 5736 5737 5737 5737 5737 5738 5738 5740 5742 5744 5745 5745 5746 5745
5785 5777 5771 5760 5750 5756 5758 5760 5762 5756 5759 5760 5757 5741 5744 5747 5744 5746 5743 5741 5740 5737 5735 5734 5734 5733 5733 5731 5731 5731 5732 5733 5735 5735 5735 5736 5735 5735 5736 5736 5737 5737 5738 5740 5742 5744 5745 5746 5746
5786 5776 5762 5752 5751 5760 5766 5768 5767 5758 5754 5754 5758 5737 5737 5744 5749 5746 5742 5740 5739 5737 5736 5735 5732 5733 5733 5733 5731 5731 5732 5733 5733 5732 5733 5733 5733 5734 5734 5734 5734 5735 5736 5738 5741 5744 5744 5745 5746
5774 5774 5755 5735 5750 5757 5766 5769 5765 5758 5753 5752 5751 5747 5737 5745 5747 5744 5743 5741 5739 5739 5737 5735 5733 5733 5733 5732 5732 5731 5731 5731 5731 5730 5731 5732 5732 5734 5734 5734 5735 5735 5736 5738 5742 5743 5744 5747 5747
5771 5764 5748 5745 5749 5754 5761 5772 5765 5758 5753 5750 5759 5743 5738 5741 5745 5744 5743 5742 5740 5739 5737 5735 5735 5734 5733 5732 5731 5731 5730 5729 5730 5730 5730 5730 5730 5732 5733 5734 5735 5734 5737 5739 5741 5744 5746 5748 5749
5774 5769 5753 5754 5751 5749 5767 5767 5769 5762 5749 5763 5763 5742 5735 5744 5745 5746 5744 5742 5740 5740 5739 5737 5736 5736 5735 5732 5732 5732 5731 5730 5731 5730 5730 5730 5730 5731 5732 5733 5734 5736 5738 5740 5742 5746 5748 5749 5750
5779 5759 5750 5750 5753 5755 5768 5760 5768 5771 5757 5760 5760 5758 5758 5751 5748 5745 5741 5738 5738 5738 5738 5736 5736 5734 5733 5734 5732 5731 5729 5729 5729 5729 5728 5729 5730 5731 5734 5732 5734 5736 5739 5742 5745 5747 5748 5749 5749
5762 5751 5750 5749 5759 5762 5769 5764 5759 5757 5755 5749 5750 5755 5754 5751 5747 5744 5741 5737 5736 5737 5738 5737 5737 5736 5735 5733 5732 5730 5730 5728 5728 5728 5728 5730 5731 5731 5733 5734 5736 5739 5742 5745 5746 5748 5750 5751 5753
5761 5746 5748 5750 5760 5768 5767 5764 5767 5753 5748 5754 5752 5752 5752 5751 5746 5744 5743 5741 5739 5742 5740 5738 5738 5737 5736 5734 5732 5731 5729 5729 5727 5727 5729 5730 5732 5733 5736 5738 5740 5742 5744 5747 5750 5753 5755 5755 5756
5755 5756 5755 5751 5758 5764 5760 5765 5759 5758 5763 5767 5761 5760 5756 5751 5748 5747 5745 5744 5742 5741 5742 5741 5740 5738 5735 5734 5733 5731 5731 5731 5730 5730 5730 5732 5735 5736 5738 5741 5743 5745 5747 5751 5754 5756 5756 5759 5759
5758 5752 5752 5752 5755 5761 5763 5759 5760 5761 5767 5767 5761 5757 5755 5754 5751 5752 5751 5750 5747 5743 5744 5742 5739 5738 5736 5736 5735 5735 5734 5734 5733 5732 5733 5734 5736 5738 5740 5742 5745 5747 5751 5755 5756 5757 5762 5763 5762
5751 5749 5745 5746 5747 5755 5753 5759 5768 5763 5768 5760 5758 5756 5758 5755 5755 5755 5753 5751 5748 5748 5746 5745 5741 5740 5740 5739 5738 5737 5735 5735 5734 5735 5735 5735 5737 5739 5740 5744 5748 5752 5756 5757 5760 5762 5765 5765 5764
5750 5740 5740 5737 5738 5743 5752 5751 5758 5767 5769 5760 5758 5757 5758 5757 5759 5758 5759 5755 5753 5751 5750 5746 5745 5745 5743 5742 5741 5739 5739 5738 5738 5738 5737 5739 5740 5741 5743 5747 5751 5755 5758 5761 5764 5765 5767 5768 5767
5741 5738 5727 5726 5730 5737 5746 5744 5762 5769 5765 5761 5759 5758 5758 5759 5760 5762 5762 5760 5756 5754 5750 5750 5751 5750 5747 5746 5744 5745 5743 5742 5742 5743 5743 5743 5744 5745 5747 5752 5754 5758 5760 5764 5767 5770 5771 5769 5771
5734 5718 5720 5715 5725 5727 5739 5746 5756 5767 5767 5763 5762 5760 5760 5759 5760 5763 5765 5763 5759 5756 5754 5752 5752 5751 5749 5748 5749 5748 5746 5747 5747 5746 5747 5748 5748 5749 5751 5754 5756 5758 5764 5767 5770 5771 5773 5772 5773
5724 5718 5718 5714 5715 5725 5735 5738 5751 5760 5758 5762 5766 5761 5761 5761 5764 5767 5766 5766 5761 5759 5756 5755 5754 5752 5750 5751 5750 5751 5750 5750 5750 5749 5751 5751 5751 5751 5754 5757 5757 5761 5767 5768 5770 5770 5772 5773 5774
5739 5725 5719 5715 5715 5723 5723 5735 5744 5751 5757 5759 5764 5761 5762 5765 5771 5769 5768 5768 5764 5762 5758 5756 5754 5754 5751 5751 5751 5751 5752 5752 5753 5753 5753 5754 5753 5755 5755 5758 5760 5763 5766 5765 5768 5770 5770 5771 5772
5731 5725 5718 5718 5719 5718 5718 5728 5738 5745 5753 5760 5763 5764 5766 5769 5768 5766 5767 5769 5768 5765 5762 5758 5757 5756 5756 5755 5756 5757 5757 5757 5757 5756 5755 5756 5755 5757 5756 5759 5761 5763 5767 5766 5769 5770 5770 5770 5771
5727 5728 5718 5718 5716 5715 5715 5718 5727 5732 5741 5754 5765 5771 5774 5772 5770 5769 5768 5770 5770 5767 5765 5762 5760 5759 5759 5758 5756 5756 5757 5756 5757 5758 5758 5760 5759 5758 5759 5758 5761 5764 5765 5768 5768 5770 5770 5768 5769
5718 5733 5728 5717 5717 5709 5719 5705 5720 5727 5734 5747 5760 5765 5772 5775 5776 5776 5773 5771 5772 5772 5769 5766 5763 5761 5760 5759 5759 5758 5758 5757 5760 5759 5760 5761 5761 5761 5760 5760 5762 5764 5765 5766 5769 5769 5769 5771 5769
5717 5731 5725 5721 5715 5714 5708 5705 5729 5731 5734 5748 5759 5764 5773 5779 5780 5779 5778 5779 5779 5775 5772 5769 5765 5762 5762 5762 5763 5761 5759 5760 5762 5761 5760 5759 5760 5761 5762 5761 5764 5764 5765 5766 5767 5768 5768 5770 5770
5725 5718 5716 5717 5712 5702 5724 5714 5729 5730 5756 5757 5762 5766 5771 5779 5782 5783 5783 5780 5778 5777 5773 5771 5767 5765 5764 5764 5765 5763 5762 5761 5761 5761 5761 5762 5763 5762 5762 5763 5764 5765 5767 5767 5768 5767 5768 5768 5769
5723 5714 5697 5695 5699 5707 5718 5709 5739 5755 5762 5772 5773 5766 5771 5777 5781 5783 5778 5777 5779 5777 5776 5773 5768 5766 5767 5766 5766 5765 5764 5764 5763 5764 5763 5762 5762 5763 5765 5765 5766 5767 5767 5768 5768 5768 5768 5769 5769
5720 5723 5709 5691 5696 5709 5719 5717 5744 5761 5770 5778 5781 5773 5774 5775 5781 5784 5783 5782 5782 5781 5779 5776 5772 5769 5769 5768 5767 5767 5767 5767 5767 5767 5766 5765 5765 5765 5765 5765 5766 5768 5768 5768 5768 5769 5769 5769 5769
5712 5708 5724 5713 5716 5714 5725 5739 5751 5758 5759 5765 5772 5767 5768 5777 5781 5785 5782 5782 5784 5783 5782 5779 5775 5772 5771 5771 5770 5769 5769 5769 5770 5769 5769 5769 5767 5768 5767 5767 5766 5767 5767 5768 5769 5770 5769 5768 5768
5722 5726 5704 5712 5694 5691 5722 5724 5731 5735 5738 5749 5757 5764 5769 5772 5769 5771 5775 5779 5781 5784 5785 5782 5779 5776 5775 5772 5771 5771 5771 5771 5771 5770 5769 5769 5770 5769 5770 5769 5769 5768 5768 5769 5770 5769 5769 5768 5770
5709 5712 5708 5713 5714 5711 5711 5717 5726 5726 5734 5746 5756 5765 5773 5771 5775 5773 5773 5780 5782 5781 5784 5783 5781 5776 5775 5774 5772 5771 5770 5770 5770 5770 5769 5769 5770 5770 5771 5770 5769 5768 5768 5769 5770 5770 5769 5768 5768
5723 5726 5723 5710 5706 5716 5716 5725 5732 5729 5737 5745 5753 5758 5768 5772 5769 5769 5771 5772 5775 5778 5780 5782 5782 5778 5777 5776 5773 5771 5770 5769 5769 5768 5769 5768 5768 5768 5768 5768 5768 5768 5768 5769 5771 5771 5772 5769 5769